Starlink 2731

operational
NORAD ID: 48651 Int'l Des: 2021-044 Owner: SPXS Country: US Constellation: starlink
LEOCIRCULARSTARLINK_TYPE

About Starlink 2731

Description loading...

Live Position

Loading 3D Globe...

Upcoming Passes

Altitude History

Altitude vs Time

uPlot chart will show altitude changes over time

Two-Line Element Set

1 48651U 21044P 26035.00002314 .00030865 00000-0 10511-2 0 9993
2 48651 53.1596 270.3657 0001509 84.0367 302.6967 15.30162594 5743
Epoch: Feb 4, 2026 • Age: 22 hours

Current Status

Altitude 477.8 km
Velocity 7.63 km/s
Sub-Earth Point 39.40°N, 162.11°W
Launch Date May 26, 2021
Age 4.6 years
Type internet

Technical Details

Classification Payload
Mass 260.00 kg
Dry Mass 248.00 kg
Total Mass 260.00 kg
Length 0.20 m
Diameter 2.80 m
Span 9.00 m
Shape Box + pan
Manufacturer SPXS
Bus Type Starlink
Phase Status In Orbit
Owner/State SPXS/US

Large Constellations

Loading constellations...